Location: Unspecified
(0.0000°N, 0.0000°E)
Time: 12:06:13
(UTC+00:00)

Explorer 11/Cluster Stage 4 - All Passes

Search period start: 07 October 2022 00:00
Search period end: 17 October 2022 00:00
Orbit: 466 x 1249 km, 28.8° (Epoch: 06 October)

Date Brightness Start Highest point End Pass type
(mag) Time Alt. Az. Time Alt. Az. Time Alt. Az.
07 Oct - 04:06:04 10° SSW 04:10:32 25° SSE 04:15:46 10° E visible
07 Oct - 05:52:57 10° WSW 05:59:10 83° NNW 06:06:46 10° ENE daylight
07 Oct - 07:42:43 10° W 07:48:38 27° NNW 07:55:11 10° NNE daylight
07 Oct - 09:37:43 10° NNW 09:39:05 10° NNW 09:40:27 10° N daylight
07 Oct - 15:08:47 10° NNW 15:12:42 16° NNE 15:16:13 10° ENE daylight
07 Oct - 16:56:12 10° NW 17:02:03 53° NNE 17:06:42 10° ESE daylight
07 Oct - 18:46:05 10° W 18:50:17 27° SSW 18:53:52 10° SSE visible
08 Oct - 03:53:36 10° SSW 03:58:04 28° SSE 04:03:26 10° E visible
08 Oct - 05:40:43 10° WSW 05:46:39 71° NNW 05:54:00 10° NE daylight
08 Oct - 07:30:47 10° WNW 07:36:11 23° NNW 07:42:10 10° NNE daylight
08 Oct - 14:55:32 10° NNW 15:00:23 19° NNE 15:04:37 10° ENE daylight
08 Oct - 16:43:25 10° NW 16:49:39 66° NNE 16:54:35 10° ESE daylight
08 Oct - 18:33:49 10° W 18:37:54 23° SSW 18:41:25 10° SSE visible
09 Oct - 03:41:09 10° SSW 03:45:37 32° SSE 03:51:02 10° E visible
09 Oct - 05:28:31 10° WSW 05:34:10 59° NNW 05:41:11 10° NE daylight
09 Oct - 07:18:58 10° WNW 07:23:45 20° NNW 07:29:04 10° NNE daylight
09 Oct - 14:42:24 10° NNW 14:48:00 24° NNE 14:52:52 10° ENE daylight
09 Oct - 16:30:41 10° WNW 16:37:15 80° NNE 16:42:25 10° ESE daylight
09 Oct - 18:21:36 10° W 18:25:30 20° SSW 18:28:55 10° SSE visible
10 Oct - 03:28:45 10° SW 03:33:10 37° SSE 03:38:36 10° E visible
10 Oct - 05:16:23 10° WSW 05:21:43 49° NNW 05:28:21 10° NE visible
10 Oct - 07:07:17 10° WNW 07:11:23 17° NNW 07:15:51 10° NNE daylight
10 Oct - 12:43:33 10° N 12:45:19 11° NNE 12:47:02 10° NNE daylight
10 Oct - 14:29:21 10° NNW 14:35:35 28° NNE 14:40:59 10° E daylight
10 Oct - 16:17:57 10° WNW 16:24:47 85° SSW 16:30:11 10° ESE daylight
10 Oct - 18:09:25 10° WSW 18:13:07 18° SSW 18:16:22 10° S visible
11 Oct - 03:16:23 10° SW 03:20:43 44° SSE 03:26:07 10° ENE visible
11 Oct - 05:04:18 10° W 05:09:18 40° NNW 05:15:28 10° NE visible
11 Oct - 06:55:50 10° NW 06:59:01 14° NNW 07:02:27 10° N daylight
11 Oct - 12:29:44 10° N 12:32:57 13° NNE 12:36:04 10° NE daylight
11 Oct - 14:16:21 10° NW 14:23:08 33° NNE 14:28:59 10° E daylight
11 Oct - 16:05:15 10° WNW 16:12:17 73° SSW 16:17:53 10° SE daylight
11 Oct - 17:57:17 10° WSW 18:00:42 16° SSW 18:03:44 10° S daylight
12 Oct - 03:04:03 10° SW 03:08:19 53° SSE 03:13:37 10° ENE visible
12 Oct - 04:52:19 10° W 04:56:56 32° NNW 05:02:31 10° NE visible
12 Oct - 06:44:51 10° NNW 06:46:42 11° NNW 06:48:38 10° N daylight
12 Oct - 12:16:22 10° NNW 12:20:33 15° NNE 12:24:35 10° NE daylight
12 Oct - 14:03:23 10° NW 14:10:38 40° NNE 14:16:53 10° E daylight
12 Oct - 15:52:35 10° WNW 15:59:45 62° SSW 16:05:32 10° SE daylight
12 Oct - 17:45:14 10° WSW 17:48:16 14° SSW 17:51:02 10° S daylight
13 Oct - 02:51:46 10° SW 02:55:55 65° SSE 03:01:05 10° ENE visible
13 Oct - 04:40:25 10° W 04:44:35 26° NNW 04:49:32 10° NNE visible
13 Oct - 12:03:11 10° NNW 12:08:06 17° NNE 12:12:53 10° ENE daylight
13 Oct - 13:50:28 10° NW 13:58:05 46° NNE 14:04:43 10° E daylight
13 Oct - 15:39:57 10° WNW 15:47:11 54° SSW 15:53:08 10° SE daylight
13 Oct - 17:33:17 10° SW 17:35:51 13° SSW 17:38:14 10° S daylight
14 Oct - 00:54:18 10° SSE 00:55:32 11° SSE 00:56:48 10° SE night (unlit)
14 Oct - 02:39:30 10° WSW 02:43:33 82° SSE 02:48:31 10° ENE visible
14 Oct - 04:28:37 10° WNW 04:32:15 21° NNW 04:36:28 10° NNE visible
14 Oct - 11:50:06 10° NNW 11:55:38 20° NNE 12:01:01 10° ENE daylight
14 Oct - 13:37:36 10° NW 13:45:30 54° NNE 13:52:27 10° ESE daylight
14 Oct - 15:27:21 10° WNW 15:34:36 47° SSW 15:40:40 10° SE daylight
14 Oct - 17:21:29 10° SW 17:23:26 11° SSW 17:25:16 10° SSW daylight
15 Oct - 00:41:16 10° S 00:43:12 14° SSE 00:45:13 10° ESE night (unlit)
15 Oct - 02:27:16 10° WSW 02:31:12 78° NNW 02:35:55 10° NE visible
15 Oct - 04:16:59 10° WNW 04:19:57 16° NNW 04:23:17 10° NNE visible
15 Oct - 11:37:06 10° NNW 11:43:06 22° NNE 11:49:01 10° ENE daylight
15 Oct - 13:24:47 10° NW 13:32:52 63° NNE 13:40:07 10° ESE daylight
15 Oct - 15:14:47 10° W 15:21:59 41° SSW 15:28:09 10° SE daylight
15 Oct - 17:10:08 10° SW 17:11:01 10° SSW 17:11:53 10° SSW daylight
16 Oct - 00:28:27 10° SSW 00:30:53 17° SSE 00:33:23 10° ESE night (unlit)
16 Oct - 02:15:06 10° WSW 02:18:52 58° NNW 02:23:18 10° NE night (unlit)
16 Oct - 04:05:39 10° NW 04:07:41 13° NNW 04:09:50 10° N visible
16 Oct - 11:24:09 10° NNW 11:30:33 25° NNE 11:36:55 10° ENE daylight
16 Oct - 13:12:00 10° NW 13:20:12 72° NNE 13:27:42 10° ESE daylight
16 Oct - 15:02:17 10° W 15:09:22 36° SSW 15:15:35 10° SSE daylight
